Meteo Giornale » Osservazioni meteo Antille Olandesi » Hato Curacao
ore: 15:00 - Osservazioni Meteo Hato Curacao
Lat. 12° 12' N Lon. 68° 58' W Alt. 9 metri s.l.m.
32 °C
Poco Nuvoloso
Temp. 24 Ore
28 °C
32 °C
Est
25.9 Km/h
Dew point 26 °C
Umidità 70 %
Visibilità 10 Km
Il sole sorge alle ore 06:25
Il sole tramonta alle ore 18:46
| Data e Ora | Cielo e Fenomeni | T °C | DP °C | Um. % | Pres. hPa | Vis. km | Vento km/h | |
|---|---|---|---|---|---|---|---|---|
| Oggi h: 15:00 | Poco Nuvoloso | 32 | 26 | 70 | 1011 | 10 | E 25.9 | |
| Oggi h: 14:00 | Nuvoloso | 31 | 25 | 70 | 1012 | 10 | E 25.9 | |
| Oggi h: 13:00 | Nuvoloso | 32 | 26 | 70 | 1012 | 10 | E 27.8 | |
| Oggi h: 11:00 | Poco Nuvoloso | 32 | 26 | 70 | 1013 | 10 | N 0 | |
| Oggi h: 10:00 | Poco Nuvoloso | 32 | 25 | 66 | 1013 | 10 | E/SE 31.5 | |
| Oggi h: 09:00 | Poco Nuvoloso | 31 | 25 | 70 | 1013 | 10 | E/SE 33.3 | |
| Oggi h: 08:00 | Nuvoloso | 30 | 26 | 79 | 1012 | 10 | E/SE 25.9 | |
| Oggi h: 07:00 | Nuvoloso | 29 | 26 | 83 | 1012 | 10 | E/SE 18.5 | |
| Oggi h: 06:00 | Sereno | 29 | 26 | 83 | 1012 | 11 | E 20.3 | |
| Oggi h: 05:00 | Sereno | 28 | 26 | 88 | 1011 | 11 | E/SE 20.3 | |
| Oggi h: 04:00 | Sereno | 28 | 25 | 83 | 1011 | 11 | E/SE 20.3 | |
| Oggi h: 03:00 | Poco Nuvoloso | 28 | 25 | 83 | 1012 | 10 | E/SE 18.5 | |
| Oggi h: 02:00 | Poco Nuvoloso | 29 | 25 | 79 | 1012 | 10 | E/SE 20.3 | |
| Oggi h: 01:51 | Pioggia | 29 | 25 | 79 | 1012 | 10 | E/SE 22.2 | |
| Oggi h: 01:00 | Poco Nuvoloso | 29 | 25 | 79 | 1013 | 10 | E/SE 20.3 | |
| Oggi h: 00:00 | Poco Nuvoloso | 29 | 25 | 79 | 1014 | 10 | E/SE 22.2 | |
| Ieri h: 23:00 | Poco Nuvoloso | 29 | 26 | 83 | 1014 | 10 | E/SE 24 | |
| Ieri h: 22:00 | Poco Nuvoloso | 29 | 26 | 83 | 1014 | 10 | E 24 | |
| Ieri h: 21:00 | Poco Nuvoloso | 29 | 26 | 83 | 1013 | 10 | E 24 | |
| Ieri h: 20:00 | Poco Nuvoloso | 29 | 26 | 83 | 1012 | 10 | E 25.9 | |
| Ieri h: 19:00 | Poco Nuvoloso | 30 | 26 | 79 | 1010 | 10 | E 24 | |
| Ieri h: 18:00 | Poco Nuvoloso | 31 | 26 | 74 | 1010 | 10 | E 24 | |
| Ieri h: 17:00 | Poco Nuvoloso | 31 | 26 | 74 | 1010 | 10 | E 24 | |



